Precipitable_Water
1.51 1.49 1.46 1.44 1.44 1.43 1.42 1.38 1.35 1.31 1.29 1.26 1.28 1.30 1.36 1.31 1.21 1.21 1.23 1.25 1.24 1.20 1.17 1.09 1.08 1.04 1.01 1.09 1.13 1.16 1.16 1.16 1.14 1.15 1.16 1.13 1.13 1.12 1.07 1.02 0.95 0.85 0.74 0.73 0.74 0.83 0.95 1.01 1.06 1.07 1.08 1.10 1.12 1.16 1.16 1.14 1.14 1.10 1.03 0.98 0.95 0.92
1.52 1.52 1.52 1.49 1.48 1.49 1.47 1.44 1.41 1.38 1.36 1.33 1.32 1.35 1.36 1.32 1.23 1.24 1.26 1.25 1.26 1.28 1.29 1.30 1.25 1.18 1.10 1.04 1.06 1.12 1.16 1.19 1.18 1.16 1.15 1.14 1.15 1.14 1.12 1.05 1.00 0.91 0.78 0.70 0.76 0.87 0.96 1.01 1.05 1.08 1.09 1.11 1.14 1.15 1.12 1.07 1.09 1.06 0.99 0.94 0.92 0.90
1.55 1.54 1.52 1.50 1.48 1.50 1.49 1.50 1.47 1.44 1.44 1.43 1.42 1.41 1.42 1.39 1.35 1.35 1.36 1.37 1.39 1.45 1.48 1.45 1.46 1.42 1.34 1.21 1.09 1.06 1.09 1.17 1.21 1.21 1.17 1.13 1.16 1.17 1.14 1.11 1.05 0.98 0.88 0.74 0.81 0.91 0.94 0.97 1.01 1.05 1.07 1.09 1.11 1.12 1.10 1.08 1.10 1.05 1.01 0.98 0.91 0.90
1.62 1.62 1.57 1.52 1.50 1.46 1.47 1.49 1.50 1.51 1.50 1.47 1.47 1.47 1.44 1.41 1.40 1.42 1.45 1.50 1.54 1.61 1.58 1.57 1.57 1.52 1.50 1.44 1.31 1.16 1.08 1.12 1.18 1.21 1.21 1.16 1.14 1.15 1.16 1.15 1.10 1.04 1.02 0.90 0.78 0.82 0.87 0.93 0.94 0.98 0.98 1.03 1.08 1.15 1.11 1.09 1.07 1.05 1.02 1.02 0.95 0.91
1.64 1.64 1.60 1.57 1.49 1.48 1.53 1.51 1.51 1.54 1.53 1.52 1.52 1.51 1.51 1.51 1.47 1.51 1.58 1.60 1.59 1.60 1.60 1.60 1.59 1.58 1.57 1.54 1.51 1.41 1.26 1.13 1.13 1.14 1.17 1.15 1.14 1.13 1.13 1.13 1.13 1.09 1.06 1.07 1.04 0.91 0.90 0.93 0.94 1.02 1.00 1.04 1.11 1.18 1.10 1.09 1.09 1.10 1.09 1.05 0.99 0.94
1.62 1.62 1.61 1.64 1.60 1.59 1.60 1.54 1.51 1.52 1.54 1.60 1.60 1.55 1.53 1.55 1.55 1.55 1.55 1.58 1.57 1.57 1.60 1.59 1.58 1.58 1.57 1.59 1.58 1.56 1.49 1.32 1.14 1.08 1.12 1.09 1.14 1.15 1.13 1.10 1.08 1.08 1.08 1.14 1.15 1.15 1.12 1.09 1.04 1.07 1.06 1.05 1.12 1.18 1.11 1.12 1.12 1.16 1.11 1.07 1.03 0.99
1.61 1.63 1.63 1.66 1.64 1.63 1.63 1.61 1.60 1.60 1.58 1.59 1.61 1.55 1.54 1.55 1.55 1.56 1.56 1.58 1.55 1.54 1.58 1.60 1.59 1.58 1.57 1.61 1.57 1.58 1.58 1.49 1.33 1.18 1.14 1.09 1.08 1.16 1.16 1.13 1.09 1.05 1.08 1.14 1.19 1.21 1.22 1.21 1.18 1.15 1.13 1.08 1.13 1.18 1.16 1.14 1.15 1.14 1.11 1.10 1.05 1.00
1.62 1.63 1.63 1.64 1.62 1.62 1.62 1.60 1.58 1.62 1.63 1.61 1.57 1.51 1.46 1.50 1.54 1.55 1.58 1.63 1.64 1.60 1.60 1.57 1.56 1.56 1.58 1.59 1.56 1.58 1.59 1.55 1.49 1.38 1.29 1.16 1.10 1.15 1.22 1.23 1.18 1.12 1.11 1.11 1.19 1.28 1.29 1.27 1.28 1.24 1.24 1.14 1.20 1.22 1.21 1.18 1.16 1.18 1.19 1.16 1.11 1.07
1.59 1.60 1.63 1.64 1.60 1.60 1.61 1.60 1.54 1.51 1.53 1.57 1.49 1.46 1.48 1.52 1.53 1.57 1.59 1.60 1.62 1.60 1.58 1.55 1.53 1.55 1.57 1.54 1.56 1.55 1.55 1.54 1.56 1.54 1.48 1.35 1.29 1.23 1.24 1.30 1.26 1.19 1.13 1.13 1.23 1.31 1.32 1.32 1.33 1.30 1.30 1.22 1.20 1.28 1.25 1.20 1.19 1.20 1.22 1.19 1.15 1.11
1.56 1.57 1.59 1.59 1.60 1.57 1.59 1.56 1.52 1.48 1.52 1.50 1.44 1.49 1.52 1.51 1.53 1.52 1.50 1.52 1.59 1.56 1.52 1.48 1.49 1.53 1.51 1.49 1.51 1.53 1.53 1.53 1.54 1.55 1.53 1.42 1.46 1.43 1.37 1.37 1.34 1.26 1.23 1.22 1.25 1.30 1.31 1.35 1.39 1.34 1.32 1.32 1.26 1.26 1.29 1.26 1.24 1.23 1.23 1.20 1.15 1.11
1.56 1.56 1.56 1.55 1.56 1.55 1.57 1.54 1.53 1.53 1.47 1.43 1.46 1.44 1.46 1.49 1.49 1.49 1.50 1.51 1.50 1.49 1.46 1.44 1.45 1.46 1.46 1.47 1.48 1.49 1.49 1.53 1.52 1.54 1.55 1.51 1.51 1.48 1.46 1.47 1.44 1.35 1.28 1.22 1.20 1.25 1.31 1.35 1.39 1.41 1.35 1.32 1.31 1.26 1.29 1.32 1.30 1.26 1.20 1.18 1.18 1.18
1.54 1.55 1.54 1.51 1.54 1.54 1.50 1.51 1.51 1.49 1.42 1.42 1.44 1.42 1.44 1.46 1.47 1.47 1.49 1.48 1.45 1.44 1.43 1.41 1.40 1.41 1.41 1.43 1.44 1.43 1.45 1.45 1.45 1.49 1.51 1.51 1.50 1.50 1.48 1.50 1.52 1.47 1.38 1.29 1.25 1.29 1.33 1.37 1.42 1.41 1.33 1.29 1.31 1.26 1.25 1.31 1.33 1.30 1.23 1.19 1.20 1.23
1.53 1.53 1.51 1.52 1.52 1.50 1.48 1.44 1.41 1.39 1.39 1.40 1.40 1.42 1.42 1.44 1.46 1.46 1.43 1.43 1.43 1.43 1.41 1.36 1.35 1.34 1.35 1.37 1.37 1.37 1.38 1.40 1.42 1.46 1.47 1.44 1.43 1.43 1.43 1.43 1.45 1.48 1.40 1.33 1.30 1.28 1.30 1.41 1.45 1.42 1.36 1.35 1.33 1.30 1.31 1.31 1.34 1.30 1.26 1.25 1.25 1.26
1.49 1.49 1.52 1.55 1.48 1.44 1.40 1.37 1.39 1.40 1.41 1.44 1.44 1.40 1.38 1.45 1.47 1.44 1.45 1.44 1.44 1.44 1.43 1.40 1.36 1.34 1.36 1.35 1.35 1.35 1.35 1.35 1.38 1.42 1.44 1.42 1.37 1.39 1.39 1.40 1.39 1.39 1.35 1.33 1.32 1.35 1.36 1.35 1.42 1.43 1.38 1.38 1.34 1.31 1.34 1.32 1.33 1.32 1.34 1.30 1.29 1.31
1.51 1.47 1.49 1.44 1.39 1.35 1.35 1.36 1.37 1.42 1.45 1.47 1.45 1.40 1.37 1.39 1.41 1.44 1.45 1.43 1.44 1.45 1.46 1.44 1.42 1.38 1.38 1.37 1.34 1.34 1.35 1.36 1.40 1.42 1.40 1.41 1.40 1.41 1.41 1.40 1.41 1.35 1.35 1.36 1.39 1.40 1.38 1.38 1.42 1.42 1.39 1.39 1.34 1.35 1.38 1.36 1.33 1.39 1.38 1.36 1.37 1.34
1.45 1.41 1.38 1.42 1.39 1.33 1.34 1.41 1.46 1.46 1.43 1.43 1.37 1.34 1.34 1.37 1.35 1.36 1.39 1.38 1.42 1.44 1.44 1.43 1.42 1.41 1.35 1.35 1.34 1.31 1.32 1.35 1.34 1.35 1.34 1.35 1.36 1.34 1.36 1.37 1.40 1.38 1.31 1.33 1.37 1.39 1.44 1.41 1.42 1.40 1.41 1.42 1.41 1.38 1.39 1.41 1.43 1.43 1.45 1.44 1.41 1.43
1.38 1.39 1.39 1.41 1.43 1.37 1.35 1.36 1.36 1.30 1.32 1.31 1.28 1.33 1.38 1.37 1.30 1.29 1.28 1.31 1.41 1.42 1.44 1.43 1.42 1.40 1.35 1.34 1.33 1.30 1.30 1.31 1.32 1.28 1.27 1.27 1.28 1.30 1.32 1.33 1.36 1.40 1.38 1.32 1.35 1.36 1.41 1.42 1.43 1.44 1.44 1.44 1.42 1.41 1.38 1.41 1.46 1.45 1.47 1.39 1.40 1.49
1.38 1.38 1.40 1.43 1.43 1.42 1.36 1.31 1.31 1.36 1.32 1.34 1.35 1.37 1.40 1.35 1.26 1.23 1.25 1.29 1.39 1.44 1.44 1.44 1.43 1.40 1.35 1.34 1.31 1.28 1.27 1.29 1.31 1.29 1.27 1.26 1.23 1.28 1.31 1.32 1.29 1.36 1.38 1.35 1.32 1.33 1.33 1.37 1.40 1.41 1.43 1.45 1.46 1.44 1.44 1.44 1.47 1.49 1.46 1.42 1.35 1.45
1.39 1.38 1.43 1.43 1.42 1.41 1.34 1.29 1.28 1.25 1.22 1.24 1.31 1.35 1.39 1.31 1.24 1.27 1.25 1.28 1.33 1.37 1.38 1.39 1.38 1.37 1.34 1.33 1.32 1.31 1.29 1.30 1.32 1.30 1.27 1.25 1.24 1.24 1.25 1.26 1.22 1.25 1.34 1.35 1.32 1.34 1.34 1.35 1.36 1.39 1.42 1.46 1.48 1.47 1.49 1.49 1.50 1.47 1.46 1.45 1.40 1.44
1.42 1.47 1.42 1.38 1.37 1.35 1.33 1.26 1.18 1.20 1.18 1.21 1.26 1.25 1.31 1.36 1.33 1.30 1.28 1.28 1.28 1.29 1.32 1.34 1.34 1.33 1.29 1.28 1.29 1.30 1.29 1.30 1.29 1.28 1.24 1.21 1.20 1.21 1.19 1.18 1.19 1.20 1.23 1.28 1.34 1.33 1.35 1.34 1.36 1.38 1.39 1.42 1.48 1.51 1.49 1.50 1.52 1.48 1.48 1.50 1.46 1.43
1.38 1.40 1.36 1.36 1.34 1.31 1.21 1.21 1.25 1.25 1.25 1.22 1.19 1.19 1.17 1.21 1.22 1.27 1.33 1.35 1.32 1.31 1.33 1.35 1.37 1.38 1.35 1.33 1.31 1.31 1.29 1.28 1.29 1.28 1.24 1.22 1.24 1.24 1.25 1.24 1.23 1.26 1.22 1.20 1.22 1.30 1.31 1.34 1.29 1.27 1.36 1.36 1.39 1.50 1.53 1.51 1.51 1.49 1.49 1.50 1.48 1.42
1.34 1.34 1.33 1.32 1.30 1.28 1.29 1.25 1.19 1.19 1.26 1.31 1.25 1.22 1.23 1.27 1.28 1.27 1.23 1.25 1.34 1.40 1.38 1.35 1.39 1.40 1.39 1.37 1.34 1.32 1.30 1.26 1.27 1.25 1.24 1.26 1.28 1.30 1.30 1.28 1.27 1.21 1.28 1.21 1.18 1.27 1.29 1.29 1.19 1.14 1.13 1.18 1.28 1.40 1.48 1.52 1.50 1.47 1.48 1.51 1.49 1.46
1.26 1.28 1.29 1.30 1.27 1.24 1.28 1.28 1.26 1.24 1.25 1.28 1.38 1.39 1.36 1.41 1.40 1.37 1.39 1.37 1.34 1.31 1.36 1.40 1.42 1.41 1.38 1.39 1.38 1.35 1.30 1.29 1.27 1.27 1.23 1.24 1.30 1.30 1.32 1.30 1.30 1.22 1.21 1.28 1.24 1.30 1.30 1.31 1.16 1.22 1.22 1.14 1.09 1.12 1.29 1.39 1.47 1.46 1.47 1.51 1.55 1.48
1.21 1.24 1.24 1.24 1.23 1.27 1.26 1.28 1.32 1.31 1.31 1.28 1.26 1.36 1.37 1.41 1.41 1.36 1.41 1.47 1.42 1.33 1.29 1.32 1.40 1.43 1.41 1.37 1.34 1.32 1.31 1.29 1.26 1.30 1.27 1.24 1.30 1.33 1.36 1.37 1.32 1.29 1.26 1.17 1.21 1.22 1.33 1.33 1.29 1.24 1.09 1.07 1.09 1.11 1.05 1.15 1.28 1.41 1.49 1.48 1.53 1.48
1.15 1.19 1.19 1.18 1.20 1.23 1.23 1.22 1.26 1.27 1.29 1.26 1.27 1.25 1.25 1.26 1.32 1.34 1.36 1.37 1.41 1.46 1.48 1.42 1.41 1.36 1.38 1.43 1.42 1.35 1.31 1.30 1.31 1.31 1.31 1.31 1.34 1.39 1.41 1.40 1.40 1.36 1.30 1.24 1.19 1.25 1.30 1.35 1.31 1.35 1.21 1.12 1.07 1.02 1.02 1.13 1.22 1.27 1.42 1.43 1.48 1.50
1.13 1.12 1.14 1.17 1.18 1.19 1.17 1.16 1.14 1.10 1.05 1.06 1.04 1.08 1.12 1.16 1.22 1.22 1.22 1.31 1.40 1.43 1.39 1.45 1.51 1.43 1.45 1.37 1.34 1.38 1.36 1.35 1.36 1.38 1.44 1.43 1.37 1.34 1.28 1.32 1.41 1.36 1.30 1.34 1.31 1.23 1.20 1.33 1.34 1.39 1.39 1.30 1.24 1.05 1.05 1.14 1.16 1.05 1.37 1.47 1.48 1.49
1.07 1.09 1.13 1.14 1.17 1.17 1.15 1.15 1.14 1.13 1.10 1.06 1.02 1.09 1.19 1.24 1.21 1.21 1.21 1.20 1.27 1.34 1.35 1.35 1.44 1.42 1.40 1.34 1.32 1.36 1.39 1.36 1.39 1.45 1.51 1.39 1.33 1.29 1.27 1.26 1.30 1.33 1.33 1.35 1.36 1.25 1.23 1.23 1.32 1.34 1.37 1.36 1.35 1.37 1.36 1.20 1.10 1.20 1.11 1.30 1.42 1.41
1.05 1.06 1.09 1.12 1.13 1.17 1.14 1.14 1.14 1.11 1.10 1.08 1.08 1.08 1.13 1.16 1.20 1.21 1.19 1.19 1.21 1.26 1.30 1.31 1.27 1.28 1.30 1.30 1.32 1.33 1.39 1.37 1.34 1.35 1.30 1.24 1.27 1.30 1.33 1.34 1.33 1.31 1.32 1.38 1.36 1.29 1.26 1.27 1.18 1.20 1.36 1.33 1.33 1.39 1.37 1.40 1.35 1.23 1.14 1.07 1.16 1.37
1.04 1.05 1.08 1.11 1.13 1.17 1.18 1.16 1.13 1.10 1.04 1.07 1.08 1.08 1.11 1.14 1.14 1.18 1.14 1.16 1.15 1.18 1.23 1.27 1.26 1.25 1.26 1.30 1.31 1.29 1.30 1.34 1.31 1.34 1.35 1.32 1.29 1.26 1.24 1.24 1.26 1.27 1.33 1.38 1.45 1.39 1.32 1.30 1.29 1.22 1.31 1.31 1.33 1.33 1.35 1.38 1.36 1.38 1.19 1.11 1.11 1.17
1.02 1.06 1.10 1.12 1.14 1.15 1.16 1.16 1.10 1.06 1.01 0.99 1.01 1.02 1.03 1.02 1.05 1.09 1.07 1.09 1.11 1.13 1.17 1.20 1.23 1.23 1.22 1.23 1.23 1.24 1.22 1.23 1.20 1.18 1.18 1.24 1.24 1.28 1.26 1.22 1.21 1.25 1.28 1.27 1.38 1.43 1.39 1.32 1.31 1.29 1.30 1.32 1.25 1.28 1.28 1.30 1.31 1.30 1.28 1.21 1.09 1.12
0.99 1.02 1.04 1.06 1.07 1.07 1.09 1.08 1.06 1.04 1.00 0.96 0.95 0.93 0.92 0.96 0.99 1.00 0.98 1.01 1.06 1.11 1.15 1.15 1.18 1.20 1.21 1.20 1.19 1.21 1.19 1.20 1.28 1.25 1.21 1.24 1.27 1.23 1.25 1.27 1.27 1.29 1.27 1.23 1.25 1.35 1.37 1.40 1.34 1.31 1.30 1.31 1.29 1.28 1.23 1.18 1.21 1.27 1.21 1.13 1.14 1.14
0.93 0.94 0.95 0.98 0.99 1.00 1.00 1.01 1.02 1.01 0.98 0.96 0.93 0.91 0.90 0.91 0.94 0.93 0.95 0.95 1.02 1.05 1.07 1.11 1.12 1.12 1.13 1.15 1.14 1.16 1.20 1.20 1.20 1.20 1.18 1.18 1.17 1.17 1.23 1.27 1.26 1.22 1.25 1.30 1.30 1.33 1.34 1.33 1.34 1.31 1.29 1.33 1.36 1.34 1.31 1.27 1.30 1.30 1.25 1.21 1.17 1.13
0.85 0.89 0.91 0.91 0.91 0.92 0.93 0.94 0.94 0.93 0.93 0.94 0.91 0.89 0.89 0.89 0.92 0.91 0.93 0.93 0.94 0.93 0.97 0.96 0.99 1.00 1.04 1.06 1.07 1.07 1.10 1.12 1.14 1.17 1.18 1.18 1.17 1.18 1.18 1.23 1.26 1.21 1.18 1.22 1.26 1.27 1.26 1.30 1.31 1.31 1.29 1.36 1.37 1.36 1.32 1.35 1.35 1.33 1.32 1.32 1.27 1.17
0.79 0.82 0.84 0.86 0.86 0.86 0.87 0.89 0.89 0.88 0.88 0.88 0.87 0.88 0.88 0.86 0.87 0.89 0.90 0.89 0.89 0.88 0.88 0.89 0.92 0.96 1.03 1.07 1.10 1.12 1.14 1.15 1.17 1.18 1.18 1.16 1.14 1.12 1.10 1.10 1.13 1.15 1.20 1.26 1.31 1.33 1.33 1.34 1.32 1.34 1.40 1.35 1.36 1.38 1.35 1.37 1.38 1.37 1.34 1.30 1.26 1.20
0.77 0.79 0.82 0.84 0.83 0.82 0.83 0.83 0.84 0.85 0.85 0.86 0.86 0.87 0.87 0.88 0.87 0.86 0.89 0.89 0.90 0.91 0.89 0.92 0.95 1.00 1.07 1.10 1.11 1.13 1.14 1.13 1.14 1.14 1.15 1.16 1.15 1.11 1.08 1.06 1.08 1.15 1.23 1.30 1.29 1.31 1.31 1.31 1.31 1.33 1.35 1.34 1.35 1.39 1.38 1.39 1.42 1.41 1.41 1.35 1.30 1.25
0.79 0.79 0.81 0.83 0.81 0.81 0.81 0.82 0.81 0.80 0.82 0.85 0.87 0.88 0.88 0.89 0.89 0.90 0.90 0.89 0.89 0.92 0.95 0.97 1.00 1.02 1.06 1.08 1.09 1.08 1.09 1.10 1.13 1.12 1.11 1.11 1.11 1.09 1.08 1.06 1.06 1.11 1.19 1.32 1.35 1.34 1.31 1.34 1.32 1.35 1.38 1.40 1.40 1.38 1.42 1.40 1.41 1.41 1.41 1.40 1.36 1.33
0.78 0.78 0.80 0.83 0.81 0.81 0.80 0.78 0.78 0.79 0.80 0.81 0.81 0.81 0.81 0.82 0.85 0.88 0.88 0.89 0.89 0.92 0.96 0.98 0.99 1.02 1.02 1.06 1.08 1.08 1.07 1.07 1.08 1.09 1.07 1.07 1.07 1.07 1.07 1.09 1.08 1.11 1.18 1.28 1.34 1.39 1.45 1.37 1.35 1.35 1.40 1.39 1.39 1.43 1.44 1.43 1.41 1.39 1.41 1.40 1.37 1.34
Wind_Speed
3 3 3 3 3 3 3 3 4 4 4 4 4 4 5 5 5 6 6 7 6 7 7 7 7 7 7 7 7 7 7 7 6 6 5 5 4 4 3 3 2 2 2 2 2 3 3 3 2 1 1 0 0 1 0 1 0 0 1 0 0 1
4 3 3 3 4 4 3 4 4 4 4 4 4 5 5 5 6 6 7 7 7 7 8 8 8 9 8 8 8 8 8 8 8 7 6 6 5 5 4 4 3 3 3 3 3 4 4 3 3 2 2 2 1 2 2 2 2 2 2 2 2 2
4 4 4 4 4 4 4 4 4 4 4 5 5 5 6 6 6 7 8 8 8 9 9 9 10 10 10 10 9 9 9 9 9 9 8 7 7 6 6 5 5 4 4 4 4 4 4 4 4 3 3 3 3 3 3 3 3 3 3 3 3 3
4 4 4 4 4 4 4 4 4 5 5 5 5 6 6 7 7 8 9 9 9 10 9 10 10 10 10 10 10 10 9 9 10 10 9 9 8 8 7 7 6 6 6 5 6 6 6 5 5 5 5 5 4 4 4 4 5 5 4 5 5 4
4 4 4 4 4 4 4 4 5 5 5 5 6 6 7 8 8 8 9 9 9 9 9 9 10 10 10 10 10 10 10 10 10 10 10 10 10 9 9 8 8 8 8 7 7 7 7 7 7 7 7 7 6 5 6 6 6 6 6 6 6 6
4 4 4 4 4 4 4 4 5 5 5 6 6 7 8 8 9 8 9 9 9 9 9 9 10 10 10 11 11 10 10 10 10 10 11 11 11 11 10 10 9 9 9 9 9 9 9 9 9 9 8 8 7 6 7 7 8 8 8 7 7 7
4 4 4 4 4 4 4 5 5 5 6 6 7 7 8 9 9 9 9 9 9 10 10 10 10 10 11 11 11 11 10 10 10 10 11 11 12 12 12 11 11 11 11 11 11 11 11 11 11 10 9 9 9 8 9 9 9 9 8 8 8 8
4 4 4 4 4 4 4 5 5 6 6 7 7 8 8 9 9 9 9 9 10 10 9 10 10 10 10 11 11 11 11 11 11 11 11 11 12 13 13 13 12 12 12 12 12 12 12 12 12 11 11 11 10 10 10 11 10 10 9 9 8 8
4 4 3 3 4 4 5 5 6 7 7 7 8 8 8 9 9 9 9 9 9 9 9 9 10 10 10 10 11 10 11 11 11 11 11 11 12 12 14 14 13 13 13 13 13 13 13 13 13 12 12 12 12 11 12 12 12 11 10 10 9 9
3 3 3 3 4 4 5 6 7 7 7 8 8 8 8 8 8 9 9 9 8 8 9 9 9 9 9 10 10 10 10 10 11 11 11 11 11 12 13 14 14 14 14 14 14 14 14 14 14 13 13 13 12 12 12 12 12 12 12 11 11 10
2 2 3 3 4 5 6 7 7 7 7 8 8 7 7 8 8 8 8 8 8 8 8 9 8 9 9 9 9 9 10 10 10 11 10 10 10 11 12 12 14 15 14 14 15 15 15 15 14 14 14 13 13 13 12 12 12 13 13 12 12 11
2 2 3 4 5 5 6 6 7 7 7 7 7 7 7 7 7 7 7 7 7 7 8 8 7 8 8 8 8 9 9 9 10 10 10 10 10 11 11 12 13 14 15 15 15 16 17 16 15 15 15 15 15 15 14 14 13 14 14 13 12 12
3 3 4 4 5 5 6 6 7 7 7 6 6 6 7 6 6 6 6 6 6 7 7 7 7 7 7 8 8 8 8 8 9 9 10 10 11 11 12 12 12 14 15 15 15 16 17 17 17 16 16 16 16 16 16 15 14 14 15 14 13 13
3 4 4 4 5 6 6 7 7 7 6 6 6 6 6 6 6 6 5 6 6 7 7 7 7 7 8 8 8 8 8 8 9 9 10 10 11 11 12 12 12 13 14 15 15 16 16 17 17 16 16 16 17 17 16 16 15 15 15 15 14 14
4 4 5 5 5 6 7 7 7 7 6 6 6 6 6 6 5 6 6 6 7 7 7 7 8 8 8 8 8 8 9 9 9 10 10 10 11 11 11 12 12 13 14 14 15 15 15 17 17 17 17 17 17 17 16 16 16 15 15 15 15 14
5 5 5 5 6 6 6 6 7 7 7 6 7 6 6 6 6 6 7 7 7 7 7 7 8 8 8 8 9 9 9 10 10 10 11 11 11 11 11 12 12 12 13 14 14 14 15 16 17 18 18 17 17 17 17 16 16 15 15 15 15 14
5 5 5 6 6 6 7 7 7 7 7 7 7 7 7 6 6 7 7 7 7 7 8 8 8 8 8 9 9 10 10 11 11 11 12 12 12 13 13 13 13 13 13 13 14 14 15 16 17 17 18 18 18 18 18 17 17 16 16 15 15 15
5 5 6 6 7 7 7 7 7 6 7 7 7 7 7 7 7 7 7 7 8 8 9 9 9 9 9 10 10 11 11 11 12 12 12 13 13 14 14 14 14 14 14 15 15 15 15 16 16 17 18 18 18 18 18 18 18 17 17 17 17 16
6 6 6 7 7 7 7 7 6 6 6 7 8 8 8 8 8 8 8 8 9 9 9 9 9 10 10 11 11 12 12 12 13 13 14 14 14 15 15 15 16 15 15 16 16 16 16 16 16 17 18 18 18 18 19 19 19 19 18 18 18 17
6 7 7 7 7 7 7 7 7 7 7 8 8 8 8 7 8 8 8 9 10 10 10 10 10 10 11 12 12 12 13 13 14 14 15 15 16 16 16 17 17 17 17 17 17 17 17 17 17 17 17 18 18 19 19 19 20 20 20 19 19 18
6 7 7 8 8 8 8 8 8 8 8 8 8 9 8 8 9 9 9 9 10 10 11 11 11 12 12 13 13 13 14 14 15 15 16 16 17 17 17 18 18 18 18 19 19 19 18 18 17 17 17 18 19 19 20 20 20 21 20 20 19 18
6 7 8 8 8 9 9 9 9 9 9 10 10 10 9 9 10 10 11 11 10 11 12 12 13 13 14 14 14 15 15 16 16 17 17 17 17 17 18 18 18 18 19 19 20 20 19 19 19 18 17 17 18 19 20 20 21 21 21 21 20 19
7 7 8 9 9 9 10 10 10 10 11 11 12 11 11 11 11 11 12 12 12 13 13 14 14 14 14 15 15 15 16 17 17 18 18 19 19 19 19 19 19 19 20 20 20 20 20 20 20 20 18 17 17 18 20 21 21 21 21 21 20 20
7 8 9 10 10 10 11 11 11 11 12 12 12 12 13 13 13 13 13 13 14 14 14 15 15 15 15 15 16 16 17 18 18 18 19 20 20 20 20 20 20 20 20 20 20 21 21 22 21 20 19 18 17 17 18 19 21 22 22 22 22 21
8 9 10 11 11 12 12 12 12 12 12 13 13 13 14 13 14 14 14 14 15 15 16 16 16 16 16 16 17 17 17 18 19 19 19 20 20 20 20 21 21 21 21 21 21 21 21 22 23 22 21 19 18 17 17 18 19 21 23 23 23 22
9 10 11 12 13 13 13 13 13 13 13 13 14 14 14 14 14 15 15 16 16 16 17 17 17 17 17 17 18 18 18 19 19 20 20 20 20 21 21 22 22 22 22 22 22 22 22 22 23 24 24 22 21 19 18 17 17 18 20 23 23 23
10 11 13 14 14 14 14 14 14 14 14 14 14 14 14 15 15 16 16 17 17 17 17 17 17 17 17 18 18 19 20 20 21 21 21 21 22 22 22 23 22 22 23 23 23 23 23 23 23 24 24 24 23 21 19 17 16 16 18 20 22 22
11 12 14 14 15 15 15 15 15 15 14 14 14 15 15 15 16 16 17 17 17 17 17 17 18 18 18 19 19 20 20 21 22 22 21 22 22 22 23 24 24 24 24 25 25 24 24 24 23 24 24 24 23 22 21 19 18 17 17 18 20 21
12 13 14 15 16 16 16 16 16 15 15 14 15 15 15 16 16 16 16 16 16 17 17 18 18 18 19 20 20 20 21 21 22 22 22 22 23 23 24 24 25 25 25 26 26 26 25 24 24 24 24 24 24 22 22 21 19 18 18 18 20 20
13 13 14 15 16 16 16 16 16 16 16 16 16 16 16 16 16 16 16 16 16 16 17 17 18 18 19 20 20 20 21 21 22 22 22 23 23 24 25 25 26 27 27 27 26 26 26 25 25 24 24 24 24 22 22 21 21 20 19 19 20 20
14 14 14 15 16 16 16 16 16 16 17 17 17 17 17 17 17 16 16 16 16 17 17 17 18 19 19 20 20 20 21 21 22 23 23 23 24 25 26 27 27 28 28 28 27 26 26 26 25 25 25 24 24 23 22 21 22 21 20 20 20 20
14 14 14 15 15 16 16 16 17 17 17 18 18 18 18 17 17 17 17 17 17 17 18 18 19 19 20 20 21 21 21 22 23 24 24 25 25 26 27 28 28 28 28 28 28 27 26 26 25 25 25 25 24 24 23 22 22 22 21 21 21 21
13 14 14 14 15 16 16 17 17 18 18 18 18 18 18 18 18 18 18 18 19 19 19 19 20 20 21 21 21 22 22 23 24 25 25 25 26 27 28 29 29 29 29 28 28 27 27 26 26 25 25 25 24 24 23 22 22 22 22 22 22 22
13 14 14 14 15 16 17 17 17 18 18 18 18 18 18 19 19 19 19 19 19 20 20 20 20 21 21 22 22 22 23 24 25 25 25 26 27 28 29 30 30 30 29 28 27 27 27 27 26 25 25 25 24 24 23 23 22 23 23 22 22 22
14 14 14 15 16 17 18 18 18 18 18 17 17 18 18 19 20 20 20 20 20 20 21 21 21 21 22 22 22 23 23 24 25 26 26 27 28 29 30 31 31 30 29 29 28 27 27 27 26 25 25 25 24 24 23 23 22 23 23 22 22 21
14 14 14 15 16 17 18 18 19 18 17 17 17 18 19 19 20 20 20 21 21 21 21 22 22 22 23 23 23 23 24 25 26 26 27 28 29 30 31 31 31 30 29 29 28 27 26 26 25 24 24 24 24 23 23 23 22 22 22 22 22 21
14 14 15 15 16 17 18 19 19 18 18 18 18 18 19 20 20 20 20 21 21 21 22 22 23 23 23 23 24 24 25 26 27 27 28 29 30 31 32 31 31 30 30 29 27 26 26 25 25 24 24 24 24 23 23 22 22 21 21 21 21 21
Wind_Direction
244 260 269 273 272 269 269 270 269 268 266 265 266 267 270 274 277 281 282 281 281 284 286 287 288 289 289 286 286 291 291 291 296 297 293 290 288 287 278 272 269 262 252 237 224 213 207 203 198 192 188 212 344 332 261 190 196 302 321 325 270 243
260 265 268 273 270 265 267 271 271 267 265 264 264 269 276 279 280 280 281 281 281 286 288 287 287 286 285 285 284 286 285 283 287 287 282 279 279 278 271 264 258 254 252 241 230 224 219 217 220 226 241 253 277 302 266 229 254 276 286 289 269 254
265 268 270 273 269 264 267 271 271 268 267 265 265 270 279 284 282 282 282 281 281 283 284 284 287 287 283 284 286 284 280 277 277 279 276 272 273 272 267 260 255 252 250 243 233 231 232 234 242 248 255 260 272 290 262 245 267 270 271 276 266 257
265 271 274 275 271 267 268 272 272 272 272 270 271 273 281 288 286 286 285 283 283 282 281 280 284 288 285 283 287 285 279 275 272 272 271 269 269 268 264 257 253 251 246 245 241 239 243 246 256 263 262 261 271 282 262 257 270 271 273 273 265 259
263 267 272 278 277 273 274 280 281 280 280 279 279 280 285 289 288 287 286 285 286 285 283 280 281 285 284 283 286 285 279 276 270 267 267 266 266 264 261 257 253 251 248 248 249 247 248 253 261 268 266 261 267 274 262 259 267 272 275 272 263 259
264 260 265 275 279 279 279 286 290 288 288 288 285 284 287 288 287 286 286 287 288 287 285 282 281 281 282 284 284 283 280 276 271 266 264 263 264 262 260 258 253 251 250 250 254 255 254 258 262 266 266 261 263 267 260 259 265 270 273 270 264 258
267 260 263 270 278 282 283 289 295 294 294 295 293 290 291 289 287 287 287 287 287 287 286 283 282 280 281 284 284 282 279 278 275 270 265 262 262 260 258 258 255 252 251 253 256 258 261 261 258 263 266 260 261 263 261 263 266 269 270 268 264 258
268 268 269 270 277 282 286 293 300 301 297 296 299 297 296 294 290 290 289 288 287 286 287 286 284 282 281 283 285 283 280 280 279 277 272 266 263 259 256 255 257 256 252 254 256 260 264 260 255 258 263 262 262 262 261 265 266 265 266 266 264 260
264 269 270 271 278 282 287 296 301 302 300 299 301 301 298 296 293 294 294 291 288 286 286 288 287 284 282 284 283 282 281 281 279 279 277 272 267 261 256 254 256 258 257 257 259 263 265 260 256 257 260 263 264 263 262 263 264 262 262 264 263 261
260 264 269 277 285 289 294 298 301 300 302 304 304 302 299 296 294 296 296 291 287 285 286 288 288 285 284 284 282 280 280 279 278 278 278 277 272 266 261 257 254 256 259 259 260 262 263 260 259 259 259 262 262 263 265 263 262 261 260 262 262 263
256 261 277 290 294 296 299 301 303 303 304 306 305 302 301 299 296 296 294 288 285 287 289 289 289 288 288 286 283 282 280 279 278 277 277 277 275 271 270 265 256 254 257 259 260 259 259 260 260 260 259 261 260 261 264 263 262 261 261 262 263 264
265 275 291 298 300 299 300 302 304 305 305 305 305 304 305 303 298 296 293 289 288 290 293 294 294 294 293 291 287 286 284 281 281 279 277 276 275 275 274 271 262 258 256 257 261 261 259 259 260 260 259 260 260 259 261 263 263 263 262 262 262 263
279 288 296 302 305 302 301 304 305 306 307 306 308 310 307 305 302 301 297 294 294 295 297 298 298 298 296 294 290 289 288 285 283 281 280 279 279 279 277 275 268 264 261 259 262 263 261 259 258 260 259 260 260 259 260 262 262 261 261 260 260 262
281 290 296 301 305 305 305 308 308 308 310 312 314 314 309 305 307 309 305 300 299 299 298 298 300 299 295 294 293 293 292 290 288 285 284 283 283 283 281 278 273 269 268 265 265 265 262 258 257 258 259 260 261 260 259 260 260 258 258 258 258 260
284 295 300 302 303 306 309 311 310 308 310 316 315 314 312 308 309 311 307 303 302 300 298 299 301 301 296 292 293 294 294 293 292 289 287 286 285 286 284 282 277 274 272 270 267 266 263 259 257 257 259 261 262 259 259 259 259 257 256 255 256 258
287 297 303 305 304 306 310 312 311 309 309 313 313 312 311 308 306 304 303 303 303 302 302 302 301 301 298 294 293 295 294 293 292 290 288 287 286 286 285 283 280 277 275 272 269 267 265 261 259 258 259 261 261 259 258 259 258 257 255 253 255 255
291 300 306 307 308 307 308 312 311 308 309 310 310 309 305 304 303 299 299 304 307 306 305 304 301 300 300 297 296 296 295 293 291 290 289 289 288 286 284 282 280 278 276 273 270 268 267 264 261 260 260 260 260 258 257 256 256 254 252 251 253 253
297 303 309 309 310 308 310 315 313 307 308 309 309 307 303 300 300 298 297 303 309 308 304 303 299 298 299 298 297 297 296 293 292 292 291 290 288 285 283 282 281 279 276 274 272 270 270 268 264 262 261 260 260 258 256 255 254 253 252 251 252 250
301 304 309 310 308 306 310 314 313 309 310 313 311 307 303 298 296 295 294 298 304 306 304 300 298 297 298 298 297 297 296 294 292 293 293 291 289 286 283 282 281 279 276 275 274 273 272 272 268 265 263 261 259 257 255 254 253 253 252 252 252 248
305 304 306 308 304 304 309 310 310 308 309 314 314 309 303 297 295 294 291 293 298 301 301 298 297 298 297 298 298 297 296 294 292 292 292 291 289 286 284 283 281 279 277 276 275 274 273 273 271 268 265 262 259 257 256 254 253 253 252 250 251 247
312 308 307 307 303 303 307 308 308 305 305 308 309 307 303 298 296 294 292 292 294 296 298 296 296 297 297 297 298 297 296 294 292 291 291 290 289 287 285 283 282 279 277 276 275 274 273 273 271 270 268 264 260 258 257 256 254 253 251 249 249 244
313 312 313 311 306 305 306 307 307 305 304 303 303 302 301 299 296 295 295 294 296 298 298 296 295 296 296 296 297 297 297 296 294 292 291 290 289 286 284 282 281 279 277 275 274 273 272 271 269 268 268 266 264 261 259 258 256 253 249 247 246 242
312 312 313 313 310 308 307 306 306 305 305 304 303 301 300 299 296 295 294 293 296 299 299 298 296 295 296 296 297 298 298 297 295 293 290 290 288 287 284 281 280 279 277 275 274 272 270 269 268 267 266 266 266 264 260 258 256 253 247 244 242 240
308 310 310 311 311 310 307 305 305 304 305 305 305 303 301 300 298 297 296 295 294 295 297 299 297 296 296 296 297 299 300 298 296 294 291 289 289 288 286 282 279 278 277 275 274 272 269 267 266 264 263 264 266 266 263 259 256 252 246 242 240 240
300 304 307 309 309 308 307 306 305 305 304 305 306 306 304 303 302 302 301 301 297 293 295 298 298 298 297 297 298 298 300 299 296 294 291 290 290 291 291 287 283 279 277 275 274 273 270 267 265 262 259 260 264 267 265 262 258 253 246 240 239 240
298 301 303 307 308 307 306 306 306 306 305 304 304 304 304 303 303 303 302 301 299 296 297 298 299 300 300 299 298 298 299 300 298 295 293 293 295 295 295 293 289 284 281 278 275 272 270 268 265 262 258 258 261 264 266 262 259 256 246 239 239 241
298 300 301 304 306 306 306 307 307 306 306 305 303 303 302 301 301 302 301 300 299 299 300 300 300 300 300 300 299 298 298 300 300 299 297 297 297 296 296 295 292 288 285 282 277 272 270 268 266 263 259 258 259 260 262 260 259 256 246 239 238 240
297 300 300 302 303 304 304 304 305 305 305 305 305 304 302 302 302 303 302 301 301 300 300 301 301 301 300 300 300 300 300 300 301 301 299 298 297 297 296 295 293 289 285 282 277 272 269 267 266 264 260 257 257 257 257 256 257 254 246 241 239 239
297 300 303 304 303 302 302 302 301 302 302 304 305 305 304 304 304 305 304 303 302 301 301 302 302 302 302 301 301 302 302 302 302 301 300 299 298 297 296 294 292 290 287 283 279 275 271 268 265 263 260 257 255 255 253 252 253 251 248 246 241 238
297 300 304 306 305 303 302 301 301 301 301 302 303 303 304 305 305 305 306 305 304 303 302 303 303 304 304 303 302 302 303 303 303 304 302 301 299 298 296 295 293 291 288 286 282 278 272 268 265 263 261 257 254 253 251 250 249 248 249 247 241 237
297 299 301 304 306 306 305 303 301 301 301 301 302 303 304 305 305 305 306 306 305 305 304 304 305 305 305 305 304 303 303 303 304 305 305 303 301 299 297 296 294 292 288 285 282 278 273 269 265 263 260 257 253 251 249 248 247 245 246 245 240 239
298 301 301 301 304 306 307 307 305 303 301 300 300 302 303 304 304 304 304 304 304 304 304 304 304 305 305 305 305 305 305 305 305 305 304 303 302 301 300 297 295 293 288 284 280 278 275 270 266 263 260 257 253 250 248 247 246 244 244 242 240 241
297 300 302 303 305 306 307 309 309 306 304 302 301 301 301 301 302 302 302 303 303 303 302 303 304 305 305 305 306 305 306 306 307 306 305 304 303 303 302 299 297 294 289 284 279 276 273 270 266 264 261 256 252 249 247 247 246 244 244 243 242 243
296 297 301 305 308 309 308 309 309 307 305 303 303 303 302 301 300 301 301 302 302 302 302 303 304 304 305 305 306 306 306 307 308 308 306 305 305 304 304 302 299 294 289 284 278 274 271 268 266 264 260 255 250 247 246 246 245 244 244 243 241 241
294 297 300 304 308 310 310 310 310 308 305 303 303 302 302 302 301 300 301 300 300 301 301 302 302 303 304 305 306 306 307 308 309 308 307 307 307 306 305 304 300 295 289 283 277 272 269 267 265 261 258 253 248 245 244 244 244 243 242 241 239 238
292 297 300 302 307 310 310 312 312 311 308 305 303 303 303 303 302 301 300 300 300 300 300 300 301 303 304 305 306 307 308 309 309 308 308 307 307 307 306 304 301 296 290 283 276 271 267 264 262 260 256 251 247 244 243 242 241 240 240 239 237 236
290 296 300 300 305 309 310 311 313 312 311 308 306 305 305 304 304 302 302 302 302 301 301 301 301 303 305 306 306 307 308 308 309 309 308 308 308 308 306 304 301 297 291 284 276 270 266 262 261 259 255 250 246 243 242 240 238 238 237 236 235 233